Weather History for College Station, TX

Change the Weather History Date:

Saturday, December 8, 2012

  Actual Average Record
Temperature  
Mean Temperature 72 °F 53 °F  
Max Temperature 82 °F 64 °F 86 °F (1922)
Min Temperature 62 °F 43 °F 21 °F (1917)
Degree Days  
Heating Degree Days 0 12  
Month to date heating degree days 3 92  
Since 1 July heating degree days 187 317  
Cooling Degree Days 7 1  
Month to date cooling degree days 43 8  
Year to date cooling degree days 3602 3081  
Growing Degree Days 22 (Base 50)    
Moisture  
Dew Point 64 °F    
Average Humidity 76    
Maximum Humidity 100    
Minimum Humidity 51    
Precipitation  
Precipitation 0.00 in 0.10 in 3.20 in (1926)
Month to date precipitation 0.03 0.85  
Year to date precipitation 37.48 37.68  
Sea Level Pressure  
Sea Level Pressure 29.86 in    
Wind  
Wind Speed 7 mph (South)    
Max Wind Speed 16 mph    
Max Gust Speed 21 mph    
Visibility 7 miles    
Events Fog    
T = Trace of Precipitation, MM = Missing Value Source: NWS Daily Summary

Daily Weather History Graph

Daily Weather History Graph

Search for Another Location

Airport:

Trip Planner

Search our weather history database for the weather conditions in past years. The results will help you decide how hot, cold, wet, or windy it might be!

Date:

Astronomy

Dec. 08, 2012 Rise Set
Actual Time 7:10 AM CST 5:24 PM CST
Civil Twilight 6:44 AM CST 5:50 PM CST
Nautical Twilight 6:14 AM CST 6:20 PM CST
Astronomical Twilight 5:45 AM CST 6:50 PM CST
Moon 1:54 AM CST (12/8) 1:39 PM CST (12/8)
Length of Visible Light 11h 06m
Length of Day
10h 13m
Waning Crescent, 28% of the Moon is Illuminated
Dec 8
Waning Crescent
Dec 13
New
Dec 19
First Quarter
Dec 28
Full
Jan 4
Last Quarter

Hourly Weather History & Observations

Time (CST) Temp. Heat Index Dew Point Humidity Pressure Visibility Wind Dir Wind Speed Gust Speed Precip Events Conditions
12:53 AM 64.9 °F - 63.0 °F 93% 29.84 in 10.0 mi South 4.6 mph - N/A   Clear
1:53 AM 64.9 °F - 63.0 °F 93% 29.84 in 8.0 mi South 4.6 mph - N/A   Clear
2:39 AM 62.6 °F - 60.8 °F 94% 29.85 in 1.8 mi Calm Calm - N/A   Partly Cloudy
2:53 AM 62.1 °F - 61.0 °F 96% 29.85 in 1.0 mi Calm Calm - N/A   Mostly Cloudy
2:57 AM 62.6 °F - 60.8 °F 94% 29.86 in 2.0 mi Calm Calm - N/A   Mostly Cloudy
3:03 AM 62.6 °F - 60.8 °F 94% 29.86 in 5.0 mi Calm Calm - N/A   Overcast
3:31 AM 62.6 °F - 62.6 °F 100% 29.86 in 6.0 mi Calm Calm - N/A   Mostly Cloudy
3:53 AM 64.0 °F - 63.0 °F 96% 29.85 in 7.0 mi Calm Calm - N/A   Overcast
4:17 AM 64.4 °F - 62.6 °F 94% 29.86 in 1.8 mi SE 3.5 mph - N/A   Overcast
4:26 AM 64.4 °F - 64.4 °F 100% 29.86 in 0.5 mi SSE 3.5 mph - N/A Fog Fog
4:37 AM 64.4 °F - 64.4 °F 100% 29.86 in 0.2 mi Calm Calm - N/A Fog Fog
4:53 AM 64.4 °F - 64.4 °F 100% 29.86 in 0.2 mi Calm Calm - N/A Fog Fog
5:34 AM 64.4 °F - 64.4 °F 100% 29.86 in 0.5 mi Calm Calm - N/A Fog Fog
5:53 AM 64.9 °F - 64.9 °F 100% 29.86 in 1.2 mi East 3.5 mph - N/A   Overcast
6:10 AM 64.4 °F - 64.4 °F 100% 29.88 in 3.0 mi Calm Calm - N/A   Overcast
6:36 AM 64.4 °F - 64.4 °F 100% 29.89 in 4.0 mi Calm Calm - N/A   Overcast
6:53 AM 64.9 °F - 64.9 °F 100% 29.88 in 6.0 mi ESE 3.5 mph - N/A   Overcast
7:53 AM 66.0 °F - 64.9 °F 96% 29.89 in 8.0 mi Calm Calm - N/A   Overcast
8:53 AM 66.9 °F - 66.0 °F 97% 29.90 in 10.0 mi SSE 4.6 mph - N/A   Overcast
9:09 AM 68.0 °F - 66.2 °F 94% 29.91 in 10.0 mi South 5.8 mph - N/A   Overcast
9:21 AM 68.0 °F - 66.2 °F 94% 29.91 in 10.0 mi SSE 5.8 mph - N/A   Overcast
9:53 AM 71.1 °F - 66.9 °F 87% 29.90 in 10.0 mi SSW 6.9 mph - N/A   Overcast
10:00 AM 71.6 °F - 66.2 °F 83% 29.91 in 10.0 mi South 6.9 mph - N/A   Overcast
10:16 AM 71.6 °F - 66.2 °F 83% 29.92 in 10.0 mi South 8.1 mph - N/A   Overcast
10:26 AM 71.6 °F - 66.2 °F 83% 29.91 in 10.0 mi SSW 6.9 mph - N/A   Overcast
10:53 AM 73.0 °F - 66.9 °F 81% 29.90 in 10.0 mi South 6.9 mph - N/A   Overcast
11:07 AM 73.4 °F - 66.2 °F 78% 29.91 in 10.0 mi South 8.1 mph - N/A   Mostly Cloudy
11:53 AM 75.9 °F - 66.0 °F 71% 29.87 in 10.0 mi South 6.9 mph - N/A   Mostly Cloudy
12:17 PM 77.0 °F - 66.2 °F 69% 29.87 in 10.0 mi Variable 6.9 mph - N/A   Scattered Clouds
12:53 PM 79.0 °F - 64.9 °F 62% 29.84 in 10.0 mi SSW 10.4 mph 17.3 mph N/A   Mostly Cloudy
1:14 PM 78.8 °F - 64.4 °F 61% 29.84 in 10.0 mi South 9.2 mph - N/A   Partly Cloudy
1:53 PM 80.1 °F 81.5 °F 63.0 °F 56% 29.80 in 10.0 mi South 8.1 mph - N/A   Partly Cloudy
2:53 PM 81.0 °F 81.7 °F 61.0 °F 50% 29.79 in 10.0 mi South 9.2 mph 17.3 mph N/A   Scattered Clouds
3:53 PM 81.0 °F 81.9 °F 62.1 °F 52% 29.78 in 10.0 mi South 10.4 mph - N/A   Scattered Clouds
4:53 PM 79.0 °F - 63.0 °F 58% 29.79 in 10.0 mi South 13.8 mph - N/A   Partly Cloudy
5:53 PM 75.0 °F - 64.0 °F 69% 29.80 in 10.0 mi South 9.2 mph - N/A   Clear
6:53 PM 75.9 °F - 64.0 °F 67% 29.82 in 10.0 mi South 8.1 mph - N/A   Clear
7:53 PM 73.9 °F - 64.9 °F 73% 29.82 in 10.0 mi South 10.4 mph - N/A   Clear
8:53 PM 73.4 °F - 66.2 °F 78% 29.85 in 10.0 mi South 11.5 mph 19.6 mph N/A   Partly Cloudy
9:53 PM 72.0 °F - 66.9 °F 84% 29.85 in 10.0 mi South 12.7 mph 19.6 mph N/A   Clear
10:53 PM 71.1 °F - 66.9 °F 87% 29.85 in 10.0 mi South 9.2 mph - N/A   Clear
11:32 PM 71.6 °F - 66.2 °F 83% 29.86 in 10.0 mi South 10.4 mph - N/A   Mostly Cloudy
11:53 PM 71.1 °F - 66.9 °F 87% 29.84 in 10.0 mi South 11.5 mph - N/A   Overcast